コマス・ソラ彗星

32P/Comas Sola (2024)

English version
Home page
Updated on December 1, 2023

---------------------------------------------------------------------

・ プロフィール

・ 写真集

・ 軌道要素

Epoch 2023 Feb. 25.0 TT = JDT 2460000.5
T 2024 Apr. 20.57237 TT                                 Rudenko
q   2.0196608            (2000.0)            P               Q
n   0.10132846     Peri.   54.77522     -0.32169671     -0.93639788
a   4.5566789      Node    54.59241     +0.80316984     -0.34831608
e   0.5567691      Incl.    9.90854     +0.50142740     -0.04283599
P   9.73
>From 3236 observations 2004 July 20-2023 June 30, mean residual 0".7.
     Nongravitational parameters A1 = -0.51, A2 = -0.0924.

・ 星図

・ 光度変化

        m1 = 9.5 + 5 logΔ + 12.0 log r

---------------------------------------------------------------------

軌道要素はM.P.E.C. 2023-N16に掲載されたものです。
星図はステラナビゲータ Ver.10 (アストロアーツ) で作成したものです。
光度グラフはComet for Windowsで作成したものです。

---------------------------------------------------------------------

Copyright(C) Seiichi Yoshida (comet@aerith.net). All rights reserved.